Вернуться в каталог

FENGYUN 1C DEB

АктивенPO
NORAD 38499·DEBRIS·🇨🇳 China

Запущен May 10, 1999 с Taiyuan Satellite Launch Center

Loading…

Ближайшие Пролёты (ближайшие 24 часа)

TLE

СвежийSource: Space-Track

Эпоха: Sep 14, 2026, 01:52 UTC

1 38499U 99025ESJ 26257.07810116  .00001028  00000-0  90366-3 0  9992
2 38499  98.4028 126.1085 0225419 118.3576 244.0509 13.76336573793460

Отслеживайте FENGYUN 1C DEB в реальном времени с AllMySat

Download on the App Store